TimeEST,TemperatureF,Dew PointF,Humidity,Sea Level PressureIn,VisibilityMPH,Wind Direction,Wind SpeedMPH,Gust SpeedMPH,PrecipitationIn,Events,Conditions,WindDirDegrees,DateUTC
12:53 AM,27.0,21.0,78,30.12,10.0,Calm,Calm,-,N/A,,Clear,0,2013-03-05 05:53:00
2:53 AM,24.1,19.0,81,30.11,10.0,Calm,Calm,-,N/A,,Clear,0,2013-03-05 07:53:00
4:53 AM,23.0,17.1,78,30.09,10.0,Calm,Calm,-,N/A,,Clear,0,2013-03-05 09:53:00
5:53 AM,25.0,19.0,78,30.08,10.0,Calm,Calm,-,N/A,,Mostly Cloudy,0,2013-03-05 10:53:00
6:53 AM,26.1,17.1,69,30.08,10.0,Calm,Calm,-,N/A,,Overcast,0,2013-03-05 11:53:00
8:53 AM,28.9,17.1,61,30.06,10.0,ESE,6.9,-,N/A,,Overcast,110,2013-03-05 13:53:00
9:53 AM,32.0,17.1,54,30.06,10.0,East,4.6,-,N/A,,Clear,100,2013-03-05 14:53:00
10:53 AM,34.0,18.0,52,30.03,10.0,Calm,Calm,-,N/A,,Overcast,0,2013-03-05 15:53:00
11:53 AM,37.0,19.0,48,29.99,10.0,ESE,8.1,-,N/A,,Partly Cloudy,120,2013-03-05 16:53:00
12:53 PM,39.0,17.1,41,29.95,10.0,ESE,8.1,-,N/A,,Overcast,110,2013-03-05 17:53:00
1:53 PM,42.1,17.1,37,29.88,10.0,East,8.1,-,N/A,,Mostly Cloudy,100,2013-03-05 18:53:00
2:53 PM,46.0,16.0,30,29.83,10.0,East,8.1,-,N/A,,Mostly Cloudy,90,2013-03-05 19:53:00
3:53 PM,45.0,14.0,29,29.82,10.0,ENE,5.8,-,N/A,,Overcast,60,2013-03-05 20:53:00
4:53 PM,45.0,15.1,30,29.79,10.0,East,6.9,-,N/A,,Overcast,100,2013-03-05 21:53:00
5:53 PM,44.1,15.1,31,29.75,10.0,East,11.5,17.3,N/A,,Overcast,80,2013-03-05 22:53:00
6:53 PM,43.0,12.0,28,29.74,10.0,ENE,6.9,-,N/A,,Overcast,70,2013-03-05 23:53:00
7:53 PM,42.1,16.0,35,29.69,10.0,ENE,12.7,20.7,N/A,,Overcast,70,2013-03-06 00:53:00
8:53 PM,41.0,16.0,36,29.65,10.0,ENE,10.4,16.1,N/A,,Overcast,60,2013-03-06 01:53:00
9:53 PM,41.0,17.1,38,29.63,10.0,ENE,8.1,-,N/A,,Overcast,70,2013-03-06 02:53:00
10:53 PM,42.1,18.0,38,29.63,10.0,ESE,19.6,31.1,N/A,,Overcast,110,2013-03-06 03:53:00
11:45 PM,35.6,28.4,75,29.62,1.8,ESE,11.5,-,0.00,Snow,Light Snow,110,2013-03-06 04:45:00
11:53 PM,35.1,28.9,78,29.64,1.8,East,6.9,-,0.00,Snow,Light Snow,100,2013-03-06 04:53:00